This is the latest recevied weather packets stored in our database for station/object KB1RMA-4. If no packets are shown the sender has not sent any weather packets the latest 10 day(s).
| Time | Temp. | Humidity | Pressure | Rain* | Wind** | Luminosity | Snow |
|---|---|---|---|---|---|---|---|
| 1788427382 | 17.22° C | 89% | 1016.2 hPa | 4.32 mm | - | 0 W/m² | - |
| 1788427081 | 17.22° C | 88% | 1016.3 hPa | 11.43 mm | - | 0 W/m² | - |
| 1788426775 | 17.78° C | 88% | 1016.1 hPa | 9.65 mm | - | 0 W/m² | - |
| 1788426471 | 17.78° C | 87% | 1016.4 hPa | 1.78 mm | - | 0 W/m² | - |
| 1788426170 | 17.78° C | 86% | 1016.2 hPa | 6.6 mm | - | 0 W/m² | - |
| 1788425869 | 18.33° C | 85% | 1016.2 hPa | 11.43 mm | - | 0 W/m² | - |
| 1788425564 | 18.33° C | 84% | 1016.1 hPa | 6.6 mm | - | 0 W/m² | - |
| 1788425277 | 18.33° C | 82% | 1016.2 hPa | 0 mm | - | 0 W/m² | - |
| 1788424957 | 18.33° C | 82% | 1015.9 hPa | 0 mm | - | 0 W/m² | - |
| 1788424653 | 18.33° C | 82% | 1016 hPa | 0 mm | - | 0 W/m² | - |
| 1788424352 | 18.33° C | 82% | 1015.8 hPa | 0 mm | - | 0 W/m² | - |
| 1788424052 | 18.33° C | 82% | 1016.1 hPa | 0 mm | - | 0 W/m² | - |
| 1788423748 | 18.33° C | 82% | 1016.1 hPa | 0 mm | - | 0 W/m² | - |
| 1788423447 | 17.78° C | 82% | 1016 hPa | 0 mm | - | 0 W/m² | - |
| 1788423143 | 17.78° C | 83% | 1016.4 hPa | 0 mm | - | 0 W/m² | - |
| 1788422839 | 17.78° C | 84% | 1016.5 hPa | 0 mm | - | 0 W/m² | - |
| 1788422537 | 17.78° C | 85% | 1016.6 hPa | 0 mm | - | 0 W/m² | - |
| 1788422236 | 17.78° C | 85% | 1016.6 hPa | 0 mm | - | 0 W/m² | - |
| 1788421931 | 17.78° C | 86% | 1016.7 hPa | 0 mm | - | 0 W/m² | - |
| 1788421630 | 17.78° C | 86% | 1016.5 hPa | 0 mm | - | 0 W/m² | - |
| 1788421326 | 17.78° C | 86% | 1016.6 hPa | 0 mm | - | 0 W/m² | - |
| 1788421021 | 17.78° C | 87% | 1016.4 hPa | 0 mm | - | 0 W/m² | - |
| 1788420716 | 17.78° C | 87% | 1016.6 hPa | 0 mm | - | 0 W/m² | - |
| 1788420412 | 17.78° C | 87% | 1016.5 hPa | 0 mm | - | 0 W/m² | - |
| 1788420108 | 17.78° C | 87% | 1016.6 hPa | 0 mm | - | 0 W/m² | - |
* Rain latest hour (hover to see other rain measurements)
** Current wind speed in m/s (hover to see current wind gust speed)